Location: Pornichet
(47.2613°N, 2.3364°W)
Time: 20:20:08
(UTC+02:00)

ISS - Visible Passes

Search period start: 29 September 2020 00:00
Search period end: 09 October 2020 00:00
Orbit: 419 x 421 km, 51.6° (Epoch: 30 September)

Date Brightness Start Highest point End Pass type
(mag) Time Alt. Az. Time Alt. Az. Time Alt. Az.
29 Sep -2.9 21:01:35 10° WNW 21:04:49 42° N 21:06:38 22° ENE visible
29 Sep -1.0 22:38:27 10° WNW 22:39:36 20° WNW 22:39:36 20° WNW visible
30 Sep -3.5 21:51:11 10° WNW 21:54:09 66° NW 21:54:09 66° NW visible
01 Oct -3.6 21:03:55 10° WNW 21:07:17 63° NNE 21:08:44 30° E visible
01 Oct -0.7 22:40:59 10° W 22:41:42 15° W 22:41:42 15° W visible
02 Oct -3.3 20:16:39 10° WNW 20:19:57 50° NNE 20:23:15 10° E visible
02 Oct -2.7 21:53:33 10° WNW 21:56:20 40° WSW 21:56:20 40° WSW visible
03 Oct -3.5 21:06:12 10° WNW 21:09:33 66° SSW 21:11:00 30° SE visible
04 Oct -3.8 20:18:54 10° WNW 20:22:17 87° NNE 20:25:40 10° ESE visible
04 Oct -1.5 21:56:19 10° W 21:58:44 19° SW 21:58:44 19° SW visible
05 Oct -2.0 21:08:40 10° W 21:11:36 28° SW 21:13:35 16° SSE visible
06 Oct -2.7 20:21:11 10° WNW 20:24:24 42° SSW 20:27:36 10° SE visible
07 Oct -0.8 21:12:08 10° WSW 21:13:24 12° SW 21:14:41 10° SSW visible
08 Oct -1.1 20:23:53 10° W 20:26:17 18° SW 20:28:40 10° S visible
